Погода в Бемиджи

США     47°28′43″N   94°51′50″W
темп.,
°C
ветер,
м/с
пор.,
м/с
влажн.,
%
обл.,
%
осадки,
мм/ч
давл.,
гПа
погр.,
м
16 октября, сб
сб1601:00+4з413766 0.1 1013388
04:00+3з412770 0.0 1014330
07:00+3з412760 0.0 1015300
10:00+7з411560 0.0 1015405
13:00+12зсз510370 0.0 10141232
16:00+13зсз58380 0.0 10151268
19:00+8з38550 0.0 1016154
22:00+7з311620 0.0 1017218
17 октября, вс
вс1701:00+6з3126332 0.0 1017233
04:00+5з387116 0.0 1018150
07:00+5з22735 0.0 101834
10:00+10зюз23572 0.0 1018175
13:00+16юз34420 0.0 1016772
16:00+18юз35410 0.0 10141005
19:00+12ю34640 0.0 101462
22:00+10ю37733 0.0 1014122
18 октября, пн
пн1801:00+9ю37785 0.0 1014132
04:00+9ююв39770 0.0 1013147
07:00+8ююв310780 0.0 1013172
10:00+13ююв412570 0.0 1011292
13:00+20ю611370 0.0 1010685
16:00+20ю511400 0.0 1008881
19:00+15ююв413560 0.0 1009370
22:00+14ю41557100 0.0 1009437
19 октября, вт
вт1901:00+13ю41254100 0.0 1009323
04:00+11ю31160100 0.0 1009237
07:00+10ю396499 0.0 1009185
10:00+13ю24550 0.0 1010206
13:00+19зюз114238 0.0 1010705
16:00+20с2241100 0.0 10101091
19:00+14с4960100 0.0 1013316
22:00+11ссв51186100 0.0 1015436
20 октября, ср
ср2001:00+9ссв51185100 0.0 1016465
04:00+7св51284100 0.0 1017540
07:00+6св51283100 0.0 1017546
10:00+6св61272100 0.0 1019546
13:00+9св5963100 0.0 1017726
16:00+8св51056100 0.1 1016716
19:00+6ссв51051100 0.1 1019765
22:00+5ссв51054100 0.0 1020653